DW5656 Sevilla ES current weather conditions

sailwx.info

Wind from 322 at 2 knots gusting 5

Air temperature 27.8° C
Dewpoint 19.0° C

Last reported at 2019-Jul-18 12:03 UTC.
Time now 2019-Jul-18 13:02 UTC

Location: N 37°23' W 005°59'.
View on Google Maps.

See reports from other nearby stations

  
Tides and Currents Weather Stations Pressure Air Temp Water Temp Dewpoint Dewpoint Depression Visibility Wind Speed Wind Dir Waves Ship Positions
date/time (UTC)wind fromknots sea level pressurealtimeterstation pressurevisibilityair tempwater tempwave heightnotes
2019-Jul-18 12:03 322 2 gusting 5 27.8
2019-Jul-18 11:54 290 2 gusting 5 27.8
2019-Jul-18 11:45 262 1 gusting 6 27.2
2019-Jul-18 11:36 234 2 gusting 6 27.2
2019-Jul-18 11:27 304 2 gusting 5 26.7
2019-Jul-18 11:18 313 0 gusting 4 26.7
2019-Jul-18 11:09 220 1 gusting 2 26.1
2019-Jul-18 11:00 292 1 gusting 5 25.6
2019-Jul-18 10:51 312 2 gusting 6 25.6
2019-Jul-18 10:42 298 1 gusting 6 25.6
2019-Jul-18 10:33 284 0 gusting 5 25.6
2019-Jul-18 10:24 252 1 gusting 6 25.0
2019-Jul-18 10:15 231 0 gusting 6 25.0
2019-Jul-18 10:06 240 1 gusting 3 25.0
2019-Jul-18 09:57 043 1 gusting 5 24.4
2019-Jul-18 09:48 080 1 gusting 4 24.4
2019-Jul-18 09:39 103 3 gusting 6 23.9
2019-Jul-18 09:30 102 2 gusting 6 23.3
2019-Jul-18 09:21 144 1 gusting 5 23.9
2019-Jul-18 09:12 094 1 gusting 5 23.3
2019-Jul-18 09:03 154 1 gusting 5 23.3
2019-Jul-18 08:54 114 0 gusting 2 23.9
2019-Jul-18 08:45 094 0 gusting 2 22.8
2019-Jul-18 08:36 164 0 gusting 2 22.2
2019-Jul-18 08:27 206 0 gusting 2 21.7
2019-Jul-18 08:18 199 0 gusting 4 21.7
2019-Jul-18 08:09 225 0 gusting 2 21.1
2019-Jul-18 08:00 202 1 gusting 4 21.1
2019-Jul-18 07:51 220 1 gusting 3 21.1
2019-Jul-18 07:42 237 1 gusting 5 21.1
2019-Jul-18 07:32 251 1 gusting 5 20.6
2019-Jul-18 07:23 217 1 gusting 4 20.6
2019-Jul-18 07:14 233 1 gusting 3 20.6
2019-Jul-18 07:05 178 1 gusting 6 20.6
2019-Jul-18 06:56 194 1 gusting 5 20.6
2019-Jul-18 06:47 229 1 gusting 3 20.6
2019-Jul-18 06:38 220 1 gusting 3 20.6
2019-Jul-18 06:29 177 1 gusting 5 20.0
2019-Jul-18 06:20 173 1 gusting 4 20.0
2019-Jul-18 06:11 222 1 gusting 3 20.0
2019-Jul-18 06:02 233 1 gusting 4 20.0
2019-Jul-18 05:53 237 1 gusting 6 20.0
2019-Jul-18 05:44 233 1 gusting 6 20.0
2019-Jul-18 05:35 244 0 gusting 3 20.0
2019-Jul-18 05:26 244 1 gusting 2 20.0
2019-Jul-18 05:17 224 1 gusting 4 20.0
2019-Jul-18 05:08 199 2 gusting 4 20.0
2019-Jul-18 04:59 217 1 gusting 4 20.0
2019-Jul-18 04:50 218 0 gusting 3 20.0
2019-Jul-18 04:41 213 1 gusting 4 20.0
2019-Jul-18 04:32 202 1 gusting 4 20.0
2019-Jul-18 04:23 214 0 gusting 4 20.0
2019-Jul-18 04:14 223 1 gusting 4 20.0
2019-Jul-18 04:05 210 1 gusting 4 20.0
2019-Jul-18 03:56 192 1 gusting 5 20.0
2019-Jul-18 03:47 186 1 gusting 5 20.0
2019-Jul-18 03:38 212 1 gusting 5 20.0
2019-Jul-18 03:29 203 1 gusting 5 20.0
2019-Jul-18 03:20 212 2 gusting 6 20.0
2019-Jul-18 03:11 211 2 gusting 6 20.0
2019-Jul-18 03:02 208 1 gusting 6 20.0
2019-Jul-18 02:53 219 1 gusting 6 20.0
2019-Jul-18 02:44 207 1 gusting 6 20.0
2019-Jul-18 02:35 231 0 gusting 6 20.0
2019-Jul-18 02:26 219 1 gusting 2 20.0
2019-Jul-18 02:17 213 1 gusting 5 20.0
2019-Jul-18 02:08 219 1 gusting 4 20.0
2019-Jul-18 01:59 200 2 gusting 6 20.0
2019-Jul-18 01:50 213 2 gusting 6 20.0
2019-Jul-18 01:41 216 2 gusting 6 20.0
2019-Jul-18 01:32 215 1 gusting 5 20.0
2019-Jul-18 01:23 204 2 gusting 3 20.0
2019-Jul-18 01:14 205 1 gusting 5 20.0
2019-Jul-18 01:05 216 2 gusting 5 20.0
2019-Jul-18 00:56 211 2 gusting 6 20.0
2019-Jul-18 00:47 207 2 gusting 6 20.0
2019-Jul-18 00:38 212 3 gusting 6 20.0
2019-Jul-18 00:29 205 3 gusting 7 20.0
2019-Jul-18 00:20 211 3 gusting 7 20.6
2019-Jul-18 00:11 202 3 gusting 7 20.6
2019-Jul-18 00:02 211 4 gusting 8 20.6
2019-Jul-17 23:53 201 4 gusting 8 20.6
2019-Jul-17 23:44 212 4 gusting 9 20.6
2019-Jul-17 23:35 209 4 gusting 10 20.6
2019-Jul-17 23:26 203 4 gusting 10 21.1
2019-Jul-17 23:17 213 3 gusting 8 21.1
2019-Jul-17 23:08 209 4 gusting 13 21.1
2019-Jul-17 22:59 208 4 gusting 13 21.1
2019-Jul-17 22:50 210 4 gusting 9 21.1
2019-Jul-17 22:41 210 4 gusting 9 21.1
2019-Jul-17 22:32 206 4 gusting 9 21.1
2019-Jul-17 22:23 206 5 gusting 10 21.1
2019-Jul-17 22:14 207 5 gusting 10 21.1
2019-Jul-17 22:05 211 4 gusting 8 21.7
2019-Jul-17 21:56 214 4 gusting 8 21.7
2019-Jul-17 21:47 216 4 gusting 7 21.7
2019-Jul-17 21:38 220 4 gusting 11 22.2
2019-Jul-17 21:29 221 4 gusting 11 22.2
2019-Jul-17 21:20 219 5 gusting 10 22.2
2019-Jul-17 21:11 219 4 gusting 12 22.2
2019-Jul-17 21:02 217 4 gusting 9 22.8
2019-Jul-17 20:53 221 4 gusting 10 22.8
2019-Jul-17 20:44 218 4 gusting 12 22.8
2019-Jul-17 20:35 206 4 gusting 12 23.3
2019-Jul-17 20:26 206 4 gusting 9 23.3
2019-Jul-17 20:17 210 4 gusting 9 23.3
2019-Jul-17 20:08 215 4 gusting 8 23.9
2019-Jul-17 19:59 215 4 gusting 11 24.4
2019-Jul-17 19:50 224 5 gusting 10 24.4
2019-Jul-17 19:41 218 5 gusting 10 25.0
2019-Jul-17 19:32 224 5 gusting 13 25.0
2019-Jul-17 19:23 217 6 gusting 10 25.6
2019-Jul-17 19:14 227 5 gusting 13 26.1
2019-Jul-17 19:05 216 4 gusting 11 26.1
2019-Jul-17 18:56 209 5 gusting 11 26.1
2019-Jul-17 18:47 209 5 gusting 11 26.1
2019-Jul-17 18:38 213 5 gusting 10 26.7
2019-Jul-17 18:29 207 6 gusting 12 26.7
2019-Jul-17 18:20 210 5 gusting 11 26.7
2019-Jul-17 18:11 213 6 gusting 13 26.7
2019-Jul-17 18:02 207 6 gusting 11 27.2
2019-Jul-17 17:53 210 6 gusting 13 27.2
2019-Jul-17 17:44 209 6 gusting 13 27.2
2019-Jul-17 17:35 220 6 gusting 13 27.8
2019-Jul-17 17:26 208 6 gusting 13 27.8
2019-Jul-17 17:17 223 6 gusting 13 27.8
2019-Jul-17 17:08 214 6 gusting 11 27.8
2019-Jul-17 16:59 207 6 gusting 12 27.8
2019-Jul-17 16:50 229 6 gusting 13 28.3
2019-Jul-17 16:41 202 6 gusting 13 28.3
2019-Jul-17 16:32 210 5 gusting 11 28.3
2019-Jul-17 16:23 212 6 gusting 13 28.3
2019-Jul-17 16:14 206 5 gusting 13 28.3
2019-Jul-17 16:05 205 6 gusting 11 28.3
2019-Jul-17 15:56 208 6 gusting 13 28.3
2019-Jul-17 15:47 207 5 gusting 10 28.3
2019-Jul-17 15:38 194 5 gusting 9 28.3
2019-Jul-17 15:29 213 5 gusting 10 28.3
2019-Jul-17 15:20 205 5 gusting 11 28.3
2019-Jul-17 15:11 211 4 gusting 11 28.3
2019-Jul-17 15:02 196 4 gusting 12 28.3
2019-Jul-17 14:53 208 4 gusting 11 28.3
2019-Jul-17 14:44 232 4 gusting 9 28.3
2019-Jul-17 14:35 213 4 gusting 11 27.8
2019-Jul-17 14:26 185 5 gusting 12 27.8
2019-Jul-17 14:17 223 3 gusting 10 27.8
2019-Jul-17 14:08 209 3 gusting 6 27.8
2019-Jul-17 13:59 213 3 gusting 9 27.2
2019-Jul-17 13:50 238 3 gusting 7 27.2
2019-Jul-17 13:41 226 3 gusting 6 26.7
2019-Jul-17 13:32 232 3 gusting 9 26.7
2019-Jul-17 13:23 190 4 gusting 8 26.1
2019-Jul-17 13:14 173 3 gusting 9 25.6
2019-Jul-17 13:05 247 2 gusting 8 26.1
2019-Jul-17 12:56 190 3 gusting 12 25.6
2019-Jul-17 12:47 211 4 gusting 8 25.6
2019-Jul-17 12:38 234 4 gusting 7 25.0
2019-Jul-17 12:29 184 4 gusting 9 25.0
2019-Jul-17 12:20 219 3 gusting 11 24.4
2019-Jul-17 12:11 225 3 gusting 10 24.4
2019-Jul-17 12:02 222 3 gusting 7 24.4
2019-Jul-17 11:53 239 3 gusting 6 24.4
2019-Jul-17 11:44 211 3 gusting 6 23.9
2019-Jul-17 11:35 231 3 gusting 7 23.9
2019-Jul-17 11:26 216 3 gusting 7 23.9
2019-Jul-17 11:17 229 3 gusting 7 23.3
2019-Jul-17 11:08 225 4 gusting 7 23.3
2019-Jul-17 10:59 227 4 gusting 10 23.3
2019-Jul-17 10:50 228 4 gusting 8 23.3
2019-Jul-17 10:41 212 4 gusting 8 23.3
2019-Jul-17 10:32 233 3 gusting 9 23.3
2019-Jul-17 10:23 238 4 gusting 7 23.3
2019-Jul-17 10:14 234 5 gusting 10 22.8
2019-Jul-17 10:05 250 4 gusting 10 22.8
2019-Jul-17 09:56 241 4 gusting 8 22.8
2019-Jul-17 09:47 236 4 gusting 8 22.2
2019-Jul-17 09:38 246 3 gusting 8 22.2
2019-Jul-17 09:29 233 3 gusting 8 22.2
2019-Jul-17 09:20 230 3 gusting 6 22.2
2019-Jul-17 09:11 225 3 gusting 7 22.2
2019-Jul-17 09:02 227 4 gusting 9 22.2
2019-Jul-17 08:53 227 3 gusting 8 22.2
2019-Jul-17 08:44 215 4 gusting 10 22.2
2019-Jul-17 08:35 232 3 gusting 8 22.2
2019-Jul-17 08:26 184 2 gusting 6 22.2
2019-Jul-17 08:17 216 3 gusting 6 21.7
2019-Jul-17 08:08 204 2 gusting 6 21.7
2019-Jul-17 07:59 216 2 gusting 6 21.7
2019-Jul-17 07:50 219 2 gusting 6 21.7
2019-Jul-17 07:41 196 2 gusting 5 21.1
2019-Jul-17 07:32 213 2 gusting 6 21.1
2019-Jul-17 07:23 227 2 gusting 6 21.1
2019-Jul-17 07:14 217 2 gusting 6 21.1
2019-Jul-17 07:05 206 2 gusting 5 21.1
2019-Jul-17 06:56 221 2 gusting 6 21.1
2019-Jul-17 06:47 203 2 gusting 6 21.1
2019-Jul-17 06:38 224 2 gusting 5 20.6
2019-Jul-17 06:29 203 2 gusting 5 20.6
2019-Jul-17 06:20 222 2 gusting 4 20.6
2019-Jul-17 06:11 209 2 gusting 6 20.6
2019-Jul-17 06:02 234 2 gusting 5 20.6
2019-Jul-17 05:53 203 2 gusting 6 20.6
2019-Jul-17 05:44 210 2 gusting 4 20.6
2019-Jul-17 05:35 209 2 gusting 6 20.0
2019-Jul-17 05:26 205 1 gusting 5 20.0
2019-Jul-17 05:17 218 1 gusting 4 20.0
2019-Jul-17 05:08 228 0 gusting 3 20.0
2019-Jul-17 04:59 238 1 gusting 3 20.0
2019-Jul-17 04:50 217 2 gusting 5 20.0
2019-Jul-17 04:41 225 1 gusting 6 20.0
2019-Jul-17 04:32 209 2 gusting 5 20.0
2019-Jul-17 04:23 212 2 gusting 6 20.0
2019-Jul-17 04:14 205 2 gusting 6 20.0
2019-Jul-17 04:05 218 1 gusting 6 20.0
2019-Jul-17 03:56 222 2 gusting 6 20.0
2019-Jul-17 03:47 209 1 gusting 5 20.0
2019-Jul-17 03:38 211 2 gusting 5 20.0
2019-Jul-17 03:29 210 2 gusting 5 20.0
2019-Jul-17 03:20 202 1 gusting 6 20.0
2019-Jul-17 03:11 201 1 gusting 4 20.0
2019-Jul-17 03:02 204 1 gusting 4 20.0
2019-Jul-17 02:53 211 2 gusting 5 20.0
2019-Jul-17 02:44 212 1 gusting 5 20.0
2019-Jul-17 02:35 224 2 gusting 5 20.0
2019-Jul-17 02:26 217 2 gusting 6 20.0
2019-Jul-17 02:17 209 2 gusting 4 20.0
2019-Jul-17 02:08 220 2 gusting 5 20.0
2019-Jul-17 01:59 222 2 gusting 7 20.0
2019-Jul-17 01:50 215 3 gusting 6 20.0
2019-Jul-17 01:41 211 3 gusting 8 20.0
2019-Jul-17 01:32 213 4 gusting 7 20.6
2019-Jul-17 01:23 206 4 gusting 9 20.6
2019-Jul-17 01:14 210 4 gusting 8 20.6
2019-Jul-17 01:05 209 4 gusting 10 20.6
2019-Jul-17 00:56 208 4 gusting 8 20.6
2019-Jul-17 00:47 212 4 gusting 7 20.6
2019-Jul-17 00:38 203 2 gusting 8 20.6
2019-Jul-17 00:29 217 2 gusting 6 21.1
2019-Jul-17 00:20 220 2 gusting 7 21.1
2019-Jul-17 00:11 215 3 gusting 7 21.1
2019-Jul-17 00:02 215 3 gusting 7 21.1
2019-Jul-16 23:53 209 3 gusting 8 21.1
2019-Jul-16 23:44 213 3 gusting 7 21.1
2019-Jul-16 23:35 212 4 gusting 7 21.1
2019-Jul-16 23:26 220 3 gusting 8 21.1
2019-Jul-16 23:17 219 3 gusting 10 21.7
2019-Jul-16 23:08 215 3 gusting 7 21.7
2019-Jul-16 22:59 211 3 gusting 7 21.7
2019-Jul-16 22:50 209 3 gusting 7 21.7
2019-Jul-16 22:41 214 3 gusting 6 22.2
2019-Jul-16 22:32 223 3 gusting 7 22.2
2019-Jul-16 22:23 215 3 gusting 7 22.8
2019-Jul-16 22:14 243 3 gusting 8 22.8
2019-Jul-16 22:05 243 3 gusting 9 23.3
2019-Jul-16 21:56 230 2 gusting 6 23.3
2019-Jul-16 21:47 232 1 gusting 5 23.9
2019-Jul-16 21:38 233 2 gusting 6 23.9
2019-Jul-16 21:29 241 2 gusting 6 24.4
2019-Jul-16 21:20 231 2 gusting 6 24.4
2019-Jul-16 21:11 217 2 gusting 6 24.4
2019-Jul-16 21:02 227 3 gusting 8 25.0
2019-Jul-16 20:53 242 3 gusting 8 25.0
2019-Jul-16 20:44 247 3 gusting 7 25.6
2019-Jul-16 20:35 231 3 gusting 8 25.6
2019-Jul-16 20:26 219 3 gusting 6 26.1
2019-Jul-16 20:17 225 3 gusting 7 26.1
2019-Jul-16 20:08 233 3 gusting 7 26.7
2019-Jul-16 19:59 215 2 gusting 6 26.7
2019-Jul-16 19:50 212 2 gusting 6 26.7
2019-Jul-16 19:41 215 3 gusting 6 27.2
2019-Jul-16 19:32 212 4 gusting 8 27.2
2019-Jul-16 19:23 217 4 gusting 8 27.8
2019-Jul-16 19:14 212 4 gusting 7 27.8
2019-Jul-16 19:05 220 3 gusting 8 28.3
2019-Jul-16 18:56 241 4 gusting 7 28.9
2019-Jul-16 18:47 216 4 gusting 7 28.9
2019-Jul-16 18:38 214 4 gusting 8 29.4
2019-Jul-16 18:29 219 5 gusting 10 29.4
2019-Jul-16 18:20 226 5 gusting 10 30.0
2019-Jul-16 18:11 226 4 gusting 10 30.0
2019-Jul-16 18:02 205 4 gusting 10 30.0
2019-Jul-16 17:53 217 5 gusting 11 30.0
2019-Jul-16 17:44 211 5 gusting 10 30.6
2019-Jul-16 17:35 221 5 gusting 11 30.6
2019-Jul-16 17:26 241 6 gusting 12 31.1
2019-Jul-16 17:17 239 6 gusting 12 31.1
2019-Jul-16 17:08 233 6 gusting 13 30.6
2019-Jul-16 16:59 232 6 gusting 13 30.6
2019-Jul-16 16:50 233 5 gusting 11 31.1
2019-Jul-16 16:41 226 6 gusting 13 30.6
2019-Jul-16 16:32 215 6 gusting 13 30.6
2019-Jul-16 16:23 212 6 gusting 11 30.0
2019-Jul-16 16:14 225 6 gusting 13 30.0
2019-Jul-16 16:05 235 6 gusting 12 30.6
2019-Jul-16 15:56 218 4 gusting 11 30.6
2019-Jul-16 15:47 201 4 gusting 10 30.6
2019-Jul-16 15:38 193 5 gusting 9 30.0
2019-Jul-16 15:29 200 6 gusting 10 29.4
2019-Jul-16 15:20 203 5 gusting 13 29.4
2019-Jul-16 15:11 197 5 gusting 12 30.0
2019-Jul-16 15:02 223 5 gusting 10 30.0
2019-Jul-16 14:53 214 5 gusting 12 29.4
2019-Jul-16 14:44 194 6 gusting 13 29.4
2019-Jul-16 14:35 207 5 gusting 13 29.4
2019-Jul-16 14:26 184 5 gusting 11 29.4
2019-Jul-16 14:17 206 5 gusting 10 29.4
2019-Jul-16 14:08 193 5 gusting 11 28.9
2019-Jul-16 13:59 218 6 gusting 13 28.9
2019-Jul-16 13:50 198 6 gusting 13 28.9
2019-Jul-16 13:41 206 5 gusting 14 28.3
2019-Jul-16 13:32 199 5 gusting 13 28.9
2019-Jul-16 13:23 208 5 gusting 10 28.3
2019-Jul-16 13:14 188 5 gusting 14 28.3
2019-Jul-16 13:05 210 5 gusting 11 27.8